Location: *
(50.8512°N, 5.6907°E)
Time: 18:54:53
(UTC+00:00)

IRIDIUM 114 - Pass Details

Date: 09 April 2020
Orbit: 776 x 779 km, 86.4° (Epoch: 23 May)

Event Time Altitude Azimuth Distance (km) Brightness Sun altitude
Rises 18:46:16 0° 355° (N) 3,277 7.9 -4.3°
Reaches altitude 10° 18:48:38 10° 356° (N) 2,344 7.1 -4.6°
Maximum altitude 18:53:53 87° 85° (E) 787 4.4 -5.4°
Drops below altitude 10° 18:59:07 10° 176° (S) 2,324 6.6 -6.2°
Sets 19:01:27 0° 177° (S) 3,247 7.3 -6.5°
